TIME,DELAY(SENSOR),PRES,OXYGEN,RAWTEMP,T(OPTODE),TCPHASE,FLUOR,BETA(BETA700),BETA(BETA412),BETA(BETA440),CDOM,C(CSC),ED(ED412.40),ED(ED444.00),ED(ED489.70),ED(ED554.30),LU(LU411.80),LU(LU443.40),LU(LU489.60),LU(LU554.10),COMP,TILTX,TILTY,CHECK
1360380882,5806,891.9099731445312000,45.7855186462402340,661.5878906250000000,4.5756821632385250,54.1627006530761700,52,100,88,79,81,14968,2147757504,2147425106,2148007817,2147875218,2147636982,2147057280,2148262710,2147197376,1150,4,14,62618
1360384478,5810,960.2600097656250000,50.8931884765625000,667.1033935546875000,4.3938350677490230,53.5127296447753900,52,99,88,78,81,14974,2147755126,2147422363,2148009325,2147874733,2147641124,2147054637,2148257426,2147198217,1404,4,13,51236
1360388078,5805,979.0300292968750000,52.8842811584472660,670.5391845703125000,4.2803821563720700,53.2816810607910160,52,98,86,79,81,14976,2147759030,2147423442,2148009069,2147874112,2147640301,2147053467,2148267940,2147197723,3187,4,13,15118
1360391678,5809,987.4899902343750000,53.4221992492675800,670.9420776367188000,4.2670707702636720,53.2174491882324200,52,98,85,79,81,14974,2147759085,2147423332,2148007442,2147874066,2147643593,2147054729,2148261120,2147195081,3288,4,13,13939
1360395278,5808,983.4799804687500000,53.0153312683105500,673.4586791992188000,4.1838741302490230,53.3055992126464840,52,101,86,78,81,14973,2147756306,2147421796,2148008896,2147873353,2147640758,2147053138,2148259318,2147196553,2963,4,13,63030
1360398878,5810,994.5700073242188000,50.9857292175293000,674.5764160156250000,4.1469020843505860,53.5926895141601560,52,99,91,80,80,14972,2147756662,2147423204,2148008704,2147877184,2147642240,2147060297,2148263972,2147194605,146,4,13,31085
1360402478,5812,996.2600097656250000,52.4492301940918000,672.3621215820312000,4.2201371192932130,53.3683586120605500,53,97,86,78,80,14973,2147758034,2147422052,2148010989,2147875529,2147641920,2147055972,2148261366,2147198866,3332,4,13,15551
1360406078,5806,998.3400268554688000,52.3534011840820300,671.6124267578125000,4.2449212074279785,53.3658790588378900,52,97,89,78,80,14968,2147759588,2147422866,2148008969,2147876790,2147638802,2147059657,2148260653,2147195474,310,4,13,46986
1360409678,5806,993.3099975585938000,51.2908515930175800,675.5341796875000000,4.1152081489562990,53.5609817504882800,52,100,88,79,80,14971,2147755474,2147422619,2148012672,2147874130,2147639232,2147054500,2148265389,2147198893,134,4,13,43286
1360413278,5808,998.4400024414062000,51.2223205566406250,673.2119750976562000,4.1920337677001950,53.5422210693359400,53,100,84,79,81,14970,2147759003,2147419830,2148008886,2147874614,2147641929,2147054701,2148260918,2147200402,3538,4,13,50561
1360416878,5812,990.6099853515625000,51.3292007446289060,674.5994262695312000,4.1461429595947270,53.5434494018554700,53,99,90,80,81,14970,2147756489,2147422400,2148009142,2147877440,2147644818,2147051584,2148262244,2147196388,264,4,13,49681
1360420478,5811,996.3300170898438000,50.0939292907714840,675.8820190429688000,4.1036949157714840,53.7345504760742200,52,99,85,78,81,14969,2147756662,2147424210,2148009764,2147877156,2147644918,2147057115,2148264027,2147196004,3571,4,13,48650
1360424078,5807,1002.8599853515625000,50.3329391479492200,674.9323730468750000,4.1351242065429690,53.6852989196777340,52,98,88,79,80,14967,2147759305,2147425161,2148010404,2147874532,2147642532,2147054208,2148260918,2147197421,69,4,13,2039
1360427678,5812,1010.4899902343750000,52.4595985412597660,672.0161743164062000,4.2315711975097660,53.3616600036621100,52,100,88,78,80,14962,2147758299,2147421906,2148009938,2147874459,2147644580,2147062025,2148267446,2147195675,3199,4,13,61068
1360431278,5808,1012.1699829101562000,52.3834686279296900,670.4371948242188000,4.2837538719177250,53.3520507812500000,52,98,82,79,81,14966,2147760338,2147422354,2148008374,2147874148,2147641115,2147056640,2148264036,2147199012,3082,4,13,26442
1360434878,5812,1009.4199829101562000,52.2032890319824200,670.4484863281250000,4.2833809852600100,53.3719787597656250,51,96,88,79,81,14967,2147754011,2147424091,2148008923,2147875702,2147642870,2147058587,2148259017,2147194185,58,4,13,64562
1360438478,5811,1004.9299926757812000,51.8112487792968750,670.6815795898438000,4.2756810188293460,53.4329605102539060,53,98,86,80,82,14967,2147758500,2147421824,2148011565,2147873289,2147643172,2147059648,2148264667,2147195446,398,4,13,14173
1360442078,5808,1007.5000000000000000,52.3591117858886700,672.4486083984375000,4.2172760963439940,53.3785285949707000,52,96,85,78,80,14966,2147758180,2147424009,2148012205,2147870912,2147640448,2147055762,2148266249,2147195995,3482,4,13,59169
1360445678,5809,1006.9400024414062000,52.0565605163574200,671.6132202148438000,4.2448940277099610,53.4079208374023440,52,97,89,79,81,14965,2147759168,2147425481,2148012498,2147875081,2147642834,2147056932,2148259318,2147195858,86,4,13,16658
1360449278,5810,1004.4899902343750000,52.3320007324218750,672.6898193359375000,4.2093048095703125,53.3827896118164060,53,98,89,78,80,14969,2147756854,2147426185,2148011922,2147875739,2147641718,2147057270,2148261979,2147197138,258,4,13,60904
1360452878,5811,1007.5100097656250000,51.9722900390625000,672.6901855468750000,4.2092881202697750,53.4329986572265600,53,100,85,78,80,14966,2147757833,2147422006,2148012809,2147874505,2147645147,2147056960,2148270006,2147197046,284,4,13,21230
1360456478,5810,1012.1300048828125000,52.0359001159668000,671.5761718750000000,4.2461152076721190,53.4081993103027340,52,99,85,77,81,14968,2147754788,2147422592,2148011282,2147874203,2147644562,2147060818,2148258340,2147195410,126,4,14,65154
1360460078,5809,1009.0399780273438000,52.2264213562011700,671.4829101562500000,4.2491989135742190,53.3870887756347660,53,95,88,80,81,14966,2147758409,2147423204,2148008009,2147876699,2147643026,2147053769,2148263350,2147199222,3478,4,13,22918
1360463678,5807,1006.2999877929688000,52.1571617126464840,671.3419189453125000,4.2538590431213380,53.3900489807128900,51,99,91,79,80,14966,2147759926,2147423954,2148007625,2147875081,2147641142,2147059995,2148259885,2147200411,2990,4,13,2615
1360467278,5810,1008.5999755859375000,52.0256690979003900,672.4555053710938000,4.2170491218566895,53.4216308593750000,52,98,86,79,81,14958,2147760457,2147426468,2148007954,2147874706,2147645970,2147051629,2148260644,2147196324,3538,4,13,4546
1360470878,5811,1011.7999877929688000,52.3538017272949200,672.3621215820312000,4.2201371192932130,53.3789710998535160,52,98,86,79,80,14963,2147757110,2147423972,2148008914,2147874944,2147642678,2147055469,2148258770,2147198016,95,4,13,7200
1360474478,5809,1012.9799804687500000,52.5584907531738300,671.2653198242188000,4.2563920021057130,53.3356285095214840,53,98,88,79,80,14964,2147759579,2147423625,2148010898,2147873728,2147641874,2147057398,2148259602,2147194395,3307,4,13,22102
1360478078,5808,1013.7999877929688000,52.0036315917968750,671.2047729492188000,4.2583899497985840,53.4121208190918000,52,96,86,79,80,14965,2147753188,2147424740,2148009974,2147874432,2147643072,2147057444,2148261129,2147195904,3440,4,13,19751
1360481678,5809,1012.3800048828125000,52.4567108154296900,671.7526245117188000,4.2402858734130860,53.3580207824707000,52,99,83,78,79,14964,2147760201,2147423734,2148009590,2147877028,2147637750,2147055268,2148260873,2147196836,228,4,14,16497
1360485278,5812,1002.6699829101562000,52.2294998168945300,672.0817871093750000,4.2294030189514160,53.3910102844238300,53,100,89,79,80,14962,2147755401,2147422080,2148010422,2147874596,2147642742,2147054637,2148264905,2147195437,72,4,13,32641
1360488878,5811,1002.5000000000000000,49.7324905395507800,676.0366210937500000,4.0985770225524900,53.7806701660156250,53,99,86,80,80,14961,2147759030,2147423771,2148006464,2147873216,2147644726,2147053467,2148264667,2147199378,257,4,13,19261
1360492478,5808,996.8300170898438000,50.1609306335449200,676.7125854492188000,4.0761971473693850,53.7363281250000000,52,100,88,80,81,14963,2147759789,2147422610,2148010761,2147870171,2147643172,2147053504,2148263341,2147197705,94,4,13,3206
1360496078,5808,995.2700195312500000,50.0939903259277340,677.6414794921875000,4.0454368591308590,53.7564201354980500,53,98,85,79,81,14962,2147758857,2147423771,2148011529,2147873947,2147644745,2147050203,2148258304,2147198893,3255,4,13,23368
1360499678,5809,1002.4699707031250000,50.5197486877441400,676.8521728515625000,4.0715751647949220,53.6842308044433600,51,100,88,79,80,14961,2147757440,2147425188,2148009682,2147872018,2147643254,2147053741,2148262573,2147200722,160,4,13,33834
1360503278,5806,1008.1300048828125000,50.4733314514160160,676.8073730468750000,4.0730590820312500,53.6936988830566400,52,98,89,80,81,14955,2147757275,2147423469,2148010889,2147872676,2147641874,2147053339,2148260955,2147196342,119,4,13,2718
1360506878,5809,1020.0700073242188000,51.9299201965332000,672.6129760742188000,4.2118420600891110,53.4370384216308600,52,98,84,79,80,14962,2147757760,2147423744,2148010733,2147874422,2147641883,2147055552,2148257590,2147201051,3239,4,13,41520
1360510478,5807,1020.9799804687500000,52.0858993530273440,671.6718139648438000,4.2429580688476560,53.4031410217285160,53,98,86,78,81,14961,2147757083,2147423972,2148010368,2147872091,2147639405,2147063488,2148259072,2147197750,285,4,13,62262
1360514078,5811,1023.0599975585938000,52.0586013793945300,671.1447753906250000,4.2603740692138670,53.4010696411132800,53,99,87,79,80,14960,2147758253,2147424374,2148006454,2147875904,2147638948,2147058605,2148263204,2147197888,3352,4,13,56828
1360517678,5807,1017.1400146484375000,51.6787300109863300,671.0618286132812000,4.2631168365478520,53.4517097473144500,52,97,87,80,80,14962,2147755904,2147423488,2148012050,2147877302,2147640420,2147059693,2148260041,2147199579,3093,4,14,29450
1360521278,5810,1014.3499755859375000,51.8503112792968750,671.8748168945312000,4.2362442016601560,53.4407691955566400,53,98,88,79,80,14956,2147756352,2147423771,2148009929,2147871552,2147640246,2147053449,2148261248,2147199140,132,4,13,46938
1360524878,5809,1012.7000122070312000,51.8110885620117200,671.8590087890625000,4.2367668151855470,53.4432601928710940,52,100,85,80,80,14961,2147756150,2147421385,2148011008,2147877339,2147641673,2147056576,2148263021,2147200155,314,4,13,15079
1360526455,5808,1012.7899780273438000,51.6534309387207000,671.9705200195312000,4.2330818176269530,53.4670600891113300,53,100,88,79,80,14953,2147757321,2147421897,2148012516,2147873188,2147639213,2147060251,2148263030,2147199286,52,4,13,52439
